Flag for U.S.A. Weather past 2 weeks in Billings, Montana, U.S.A.

Now
34 °F

Passing clouds.


Feels Like: 25 °F
Forecast: 33 / 54 °F
Wind: 12 mph from Northwest

Location: Billings Logan International Airport

Current Time: Apr 19, 2015 at 4:21:50 AM

Latest Report: Apr 19, 2015 at 3:53 AM


Visibility: 10 mi

Pressure: 30.28 "Hg

Humidity: 70%

Dew point: 25 °F

Location of BillingsLocation

Historic Weather in Billings — Graph

°F

Billings temperature yesterday

Maximum temperature yesterday: 65 °F (at 11:53 AM)
Minimum temperature yesterday: 36 °F (at 11:53 PM)
Average temperature yesterday: 49 °F

Past Weeks' High & Low Weather Summary

 TemperatureHumidityPressure
High79 °F (Apr 14, 3:53 PM)100% (Apr 6, 4:53 AM)30.35 "Hg (Apr 6, 4:53 AM)
Low27 °F (Apr 6, 9:53 AM)8% (Apr 14, 3:53 PM)29.35 "Hg (Apr 14, 6:53 PM)
Average46 °F50%29.96 "Hg
* Reported Apr 4 2:53 AM — Apr 19 2:53 AM, Billings, Weather by CustomWeather, © 2015

Note: Actual official high and low records may vary slightly from our data, if they occured in-between our weather recording intervals... More about our weather records

Advertising

Billings weather history for previous 24 hours

 ConditionsComfort  
Time TempWeatherWind HumidityBarometerVisibility
2:53 AM
Sun, Apr 19
35 °FClear.13 mph70%30.27 "Hg10 mi
1:53 AM36 °FClear.12 mph70%30.27 "Hg10 mi
12:53 AM36 °FClear.12 mph73%30.25 "Hg10 mi
11:53 PM
Sat, Apr 18
36 °FClear.12 mph70%30.25 "Hg10 mi
10:53 PM40 °FPassing clouds.13 mph60%30.23 "Hg10 mi
9:53 PM41 °FPassing clouds.12 mph58%30.24 "Hg10 mi
8:53 PM42 °FPassing clouds.10 mph55%30.24 "Hg10 mi
7:53 PM46 °FPassing clouds.17 mph48%30.21 "Hg10 mi
6:53 PM48 °FScattered clouds.20 mph48%30.20 "Hg10 mi
5:53 PM48 °FBroken clouds.16 mph50%30.20 "Hg10 mi
4:53 PM49 °FBroken clouds.22 mph50%30.17 "Hg10 mi
3:53 PM49 °FBroken clouds.24 mph55%30.14 "Hg10 mi
2:53 PM54 °FPartly sunny.23 mph47%30.09 "Hg10 mi
1:53 PM60 °FBroken clouds.30 mph41%30.03 "Hg10 mi
1:03 PM60 °FBroken clouds.22 mph35%30.02 "Hg10 mi
12:53 PM63 °FBroken clouds.24 mph28%29.99 "Hg10 mi
11:53 AM65 °FScattered clouds.16 mph23%29.98 "Hg10 mi
10:53 AM63 °FPassing clouds.17 mph25%29.97 "Hg10 mi
9:53 AM59 °FPassing clouds.10 mph35%29.97 "Hg10 mi
8:53 AM49 °FPassing clouds.5 mph52%29.99 "Hg10 mi
7:53 AM43 °FPassing clouds.15 mph58%29.99 "Hg10 mi
6:53 AM41 °FPassing clouds.17 mph65%29.98 "Hg10 mi
5:53 AM41 °FPassing clouds.14 mph67%29.96 "Hg10 mi
4:53 AM40 °FClear.12 mph73%29.95 "Hg10 mi
Weather by CustomWeather, © 2015

See weather overviewHow to use our weather pages